H1 CPF 2 NER 2023 2 18 9 049 01 glonass134 H2 1407501 9134 40315 2023 2 18 0 0 0 2023 2 21 23 45 0 900 1 1 0 0 0 1 H9 10 0 59993 0.00000 0 -8890085.463 12884076.599 20176088.307 10 0 59993 900.00000 0 -9161722.033 10335132.251 21473809.418 10 0 59993 1800.00000 0 -9637183.975 7679342.777 22355653.262 10 0 59993 2700.00000 0 -10318837.984 4983649.122 22804303.115 10 0 59993 3600.00000 0 -11197102.760 2315172.421 22810797.931 10 0 59993 4500.00000 0 -12250731.185 -261342.651 22374724.809 10 0 59993 5400.00000 0 -13447599.024 -2685983.823 21504249.092 10 0 59993 6300.00000 0 -14745969.723 -4905925.256 20215979.800 10 0 59993 7200.00000 0 -16096184.768 -6877386.165 18534671.118 10 0 59993 8100.00000 0 -17442710.808 -8567212.178 16492763.652 10 0 59993 9000.00000 0 -18726459.143 -9954012.859 14129772.441 10 0 59993 9900.00000 0 -19887280.856 -11028806.904 11491531.937 10 0 59993 10800.00000 0 -20866532.562 -11795147.131 8629311.427 10 0 59993 11700.00000 0 -21609603.856 -12268719.304 5598817.421 10 0 59993 12600.00000 0 -22068298.313 -12476431.364 2459102.493 10 0 59993 13500.00000 0 -22202965.483 -12455031.686 -728597.494 10 0 59993 14400.00000 0 -21984291.539 -12249315.584 -3902073.875 10 0 59993 15300.00000 0 -21394670.584 -11909997.288 -6999377.934 10 0 59993 16200.00000 0 -20429096.676 -11491339.488 -9960049.840 10 0 59993 17100.00000 0 -19095537.291 -11048643.079 -12726317.659 10 0 59993 18000.00000 0 -17414771.562 -10635705.904 -15244240.972 10 0 59993 18900.00000 0 -15419699.792 -10302360.416 -17464775.125 10 0 59993 19800.00000 0 -13154153.634 -10092196.455 -19344734.153 10 0 59993 20700.00000 0 -10671257.721 -10040566.941 -20847632.941 10 0 59993 21600.00000 0 -8031412.583 -10172961.505 -21944392.242 10 0 59993 22500.00000 0 -5299984.361 -10503816.888 -22613893.387 10 0 59993 23400.00000 0 -2544798.887 -11035813.702 -22843372.952 10 0 59993 24300.00000 0 166454.790 -11759688.174 -22628651.179 10 0 59993 25200.00000 0 2768803.251 -12654565.378 -21974191.372 10 0 59993 26100.00000 0 5202443.208 -13688798.416 -20892990.833 10 0 59993 27000.00000 0 7414970.865 -14821276.780 -19406307.179 10 0 59993 27900.00000 0 9363295.426 -16003147.682 -17543226.789 10 0 59993 28800.00000 0 11015159.560 -17179877.156 -15340085.016 10 0 59993 29700.00000 0 12350206.407 -18293563.979 -12839750.316 10 0 59993 30600.00000 0 13360551.683 -19285409.275 -10090786.698 10 0 59993 31500.00000 0 14050839.955 -20098238.626 -7146510.992 10 0 59993 32400.00000 0 14437785.458 -20678971.634 -4063963.093 10 0 59993 33300.00000 0 14549218.963 -20980936.381 -902808.685 10 0 59993 34200.00000 0 14422682.312 -20965932.770 2275804.902 10 0 59993 35100.00000 0 14103630.673 -20605959.319 5410418.462 10 0 59993 36000.00000 0 13643318.402 -19884531.787 8440434.748 10 0 59993 36900.00000 0 13096457.183 -18797538.865 11307274.824 10 0 59993 37800.00000 0 12518744.223 -17353599.057 13955495.837 10 0 59993 38700.00000 0 11964363.480 -15573903.180 16333849.935 10 0 59993 39600.00000 0 11483563.899 -13491547.905 18396264.994 10 0 59993 40500.00000 0 11120415.461 -11150386.361 20102729.354 10 0 59993 41400.00000 0 10910836.630 -8603441.503 21420064.244 10 0 59993 42300.00000 0 10880975.852 -5910945.794 22322569.477 10 0 59993 43200.00000 0 11046015.344 -3138086.072 22792530.024 10 0 59993 44100.00000 0 11409448.353 -352544.752 22820573.310 10 0 59993 45000.00000 0 11962861.735 2378062.779 22405869.458 10 0 59993 45900.00000 0 12686234.951 4988749.974 21556169.332 10 0 59993 46800.00000 0 13548745.203 7419614.997 20287677.959 10 0 59993 47700.00000 0 14510047.234 9618089.148 18624763.858 10 0 59993 48600.00000 0 15521976.120 11540884.282 16599507.901 10 0 59993 49500.00000 0 16530603.164 13155557.565 14251098.491 10 0 59993 50400.00000 0 17478559.384 14441627.325 11625083.146 10 0 59993 51300.00000 0 18307528.970 15391192.312 8772489.802 10 0 59993 52200.00000 0 18960807.028 16009027.468 5748834.228 10 0 59993 53100.00000 0 19385812.304 16312151.515 2613032.905 10 0 59993 54000.00000 0 19536446.814 16328884.404 -573756.808 10 0 59993 54900.00000 0 19375200.332 16097434.818 -3749345.389 10 0 59993 55800.00000 0 18874908.241 15664078.397 -6851743.375 10 0 59993 56700.00000 0 18020086.130 15081005.363 -9820391.051 10 0 59993 57600.00000 0 16807782.680 14403930.669 -12597359.453 10 0 59993 58500.00000 0 15247913.419 13689570.089 -15128497.213 10 0 59993 59400.00000 0 13363060.403 12993091.393 -17364499.175 10 0 59993 60300.00000 0 11187746.066 12365650.452 -19261874.694 10 0 59993 61200.00000 0 8767212.135 11852118.035 -20783796.095 10 0 59993 62100.00000 0 6155755.618 11489094.299 -21900810.678 10 0 59993 63000.00000 0 3414692.490 11303294.996 -22591403.010 10 0 59993 63900.00000 0 610035.169 11310377.016 -22842397.526 10 0 59993 64800.00000 0 -2190018.594 11514251.645 -22649195.122 10 0 59993 65700.00000 0 -4917680.538 11906912.910 -22015840.744 10 0 59993 66600.00000 0 -7508142.656 12468786.390 -20954922.446 10 0 59993 67500.00000 0 -9902017.914 13169581.927 -19487305.547 10 0 59993 68400.00000 0 -12047550.995 13969612.655 -17641708.561 10 0 59993 69300.00000 0 -13902509.183 14821523.446 -15454130.361 10 0 59993 70200.00000 0 -15435677.287 15672355.145 -12967140.625 10 0 59993 71100.00000 0 -16627897.124 16465857.311 -10229047.864 10 0 59993 72000.00000 0 -17472611.076 17144952.281 -7292961.416 10 0 59993 72900.00000 0 -17975889.757 17654247.388 -4215765.485 10 0 59993 73800.00000 0 -18155945.031 17942490.552 -1057024.679 10 0 59993 74700.00000 0 -18042150.661 17964866.996 2122158.361 10 0 59993 75600.00000 0 -17673612.951 17685041.605 5260312.014 10 0 59993 76500.00000 0 -17097352.009 17076862.022 8296769.855 10 0 59993 77400.00000 0 -16366170.013 16125651.551 11172828.385 10 0 59993 78300.00000 0 -15536295.513 14829037.770 13832867.202 10 0 59993 79200.00000 0 -14664901.760 13197281.680 16225411.257 10 0 59993 80100.00000 0 -13807602.151 11253092.579 18304115.845 10 0 59993 81000.00000 0 -13016026.721 9030934.717 20028656.400 10 0 59993 81900.00000 0 -12335580.340 6575852.473 21365506.742 10 0 59993 82800.00000 0 -11803475.988 3941860.420 22288591.232 10 0 59993 83700.00000 0 -11447125.315 1189962.469 22779798.345 10 0 59993 84600.00000 0 -11282954.327 -1614120.396 22829345.408 10 0 59993 85500.00000 0 -11315694.727 -4402421.975 22435986.569 10 0 59994 0.00000 0 -11538182.030 -7107301.625 21607058.863 10 0 59994 900.00000 0 -11931670.850 -9664010.224 20358363.243 10 0 59994 1800.00000 0 -12466655.737 -12013142.086 18713882.222 10 0 59994 2700.00000 0 -13104165.439 -14102875.911 16705336.071 10 0 59994 3600.00000 0 -13797477.516 -15890907.497 14371585.260 10 0 59994 4500.00000 0 -14494182.356 -17345994.181 11757888.689 10 0 59994 5400.00000 0 -15138510.061 -18449045.100 8915030.928 10 0 59994 6300.00000 0 -15673821.699 -19193710.443 5898334.708 10 0 59994 7200.00000 0 -16045158.657 -19586443.923 2766577.905 10 0 59994 8100.00000 0 -16201740.542 -19646035.258 -419163.320 10 0 59994 9000.00000 0 -16099303.747 -19402632.276 -3596721.425 10 0 59994 9900.00000 0 -15702179.175 -18896294.482 -6704069.170 10 0 59994 10800.00000 0 -14985018.674 -18175140.365 -9680550.002 10 0 59994 11700.00000 0 -13934094.835 -17293168.486 -12468081.031 10 0 59994 12600.00000 0 -12548117.355 -16307846.562 -15012303.025 10 0 59994 13500.00000 0 -10838530.195 -15277572.681 -17263653.300 10 0 59994 14400.00000 0 -8829276.301 -14259118.041 -19178339.313 10 0 59994 15300.00000 0 -6556039.763 -13305160.949 -20719193.289 10 0 59994 16200.00000 0 -4064997.609 -12462017.295 -21856391.141 10 0 59994 17100.00000 0 -1411134.299 -11767663.660 -22568022.250 10 0 59994 18000.00000 0 1343809.729 -11250136.033 -22840499.992 10 0 59994 18900.00000 0 4133669.019 -10926370.538 -22668806.478 10 0 59994 19800.00000 0 6890365.957 -10801533.308 -22056568.397 10 0 59994 20700.00000 0 9546500.818 -10868865.673 -21015964.205 10 0 59994 21600.00000 0 12037911.787 -11110048.901 -19567466.189 10 0 59994 22500.00000 0 14306099.603 -11496070.976 -17739423.884 10 0 59994 23400.00000 0 16300417.616 -11988556.961 -15567498.202 10 0 59994 24300.00000 0 17979938.309 -12541505.422 -13093958.189 10 0 59994 25200.00000 0 19314921.055 -13103356.795 -10366854.625 10 0 59994 26100.00000 0 20287822.545 -13619306.137 -7439086.753 10 0 59994 27000.00000 0 20893810.384 -14033762.926 -4367380.148 10 0 59994 27900.00000 0 21140760.777 -14292854.840 -1211195.134 10 0 59994 28800.00000 0 21048742.401 -14346870.884 1968413.729 10 0 59994 29700.00000 0 20649009.573 -14152541.997 5109965.858 10 0 59994 30600.00000 0 19982547.753 -13675064.103 8152729.051 10 0 59994 31500.00000 0 19098232.638 -12889779.249 11037878.484 10 0 59994 32400.00000 0 18050679.692 -11783444.516 13709619.166 10 0 59994 33300.00000 0 16897873.480 -10355035.260 16116251.469 10 0 59994 34200.00000 0 15698675.067 -8616048.186 18211160.316 10 0 59994 35100.00000 0 14510310.623 -6590290.138 19953710.007 10 0 59994 36000.00000 0 13385945.163 -4313159.328 21310028.259 10 0 59994 36900.00000 0 12372441.999 -1830446.473 22253664.816 10 0 59994 37800.00000 0 11508400.966 803297.099 22766112.019 10 0 59994 38700.00000 0 10822557.359 3526759.476 22837176.987 10 0 59994 39600.00000 0 10332608.918 6274156.038 22465197.348 10 0 59994 40500.00000 0 10044520.817 8977712.650 21657095.153 10 0 59994 41400.00000 0 9952339.063 11570243.052 20428266.253 10 0 59994 42300.00000 0 10038521.680 13987714.611 18802305.387 10 0 59994 43200.00000 0 10274775.424 16171696.353 16810570.311 10 0 59994 44100.00000 0 10623364.356 18071587.242 14491591.426 10 0 59994 45000.00000 0 11038836.351 19646530.987 11890336.707 10 0 59994 45900.00000 0 11470095.375 20866936.277 9057344.912 10 0 59994 46800.00000 0 11862731.973 21715537.391 6047743.201 10 0 59994 47700.00000 0 12161512.699 22187949.369 2920168.242 10 0 59994 48600.00000 0 12312921.649 22292693.375 -264387.602 10 0 59994 49500.00000 0 12267644.465 22050690.577 -3443781.324 10 0 59994 50400.00000 0 11982887.112 21494245.932 -6555950.334 10 0 59994 51300.00000 0 11424428.652 20665565.454 -9540143.492 10 0 59994 52200.00000 0 10568318.575 19614870.836 -12338125.993 10 0 59994 53100.00000 0 9402144.678 18398192.876 -14895332.499 10 0 59994 54000.00000 0 7925816.263 17074938.895 -17161944.294 10 0 59994 54900.00000 0 6151828.447 15705338.903 -19093868.187 10 0 59994 55800.00000 0 4104995.999 14347880.102 -20653597.335 10 0 59994 56700.00000 0 1821667.940 13056839.161 -21810937.099 10 0 59994 57600.00000 0 -651543.653 11880016.919 -22543582.331 10 0 59994 58500.00000 0 -3259466.686 10856770.739 -22837535.806 10 0 59994 59400.00000 0 -5940431.947 10016426.415 -22687361.084 10 0 59994 60300.00000 0 -8628609.206 9377134.789 -22096266.556 10 0 59994 61200.00000 0 -11256518.812 8945219.010 -21076020.733 10 0 59994 62100.00000 0 -13757614.401 8715037.379 -19646702.181 10 0 59994 63000.00000 0 -16068829.954 8669364.943 -17836290.437 10 0 59994 63900.00000 0 -18132986.396 8780275.335 -15680107.131 10 0 59994 64800.00000 0 -19900959.355 9010483.614 -13220119.119 10 0 59994 65700.00000 0 -21333519.895 9315091.940 -10504117.703 10 0 59994 66600.00000 0 -22402773.839 9643663.489 -7584790.156 10 0 59994 67500.00000 0 -23093142.066 9942536.764 -4518701.464 10 0 59994 68400.00000 0 -23401843.121 10157282.843 -1365205.634 10 0 59994 69300.00000 0 -23338859.965 10235202.486 1814692.955 10 0 59994 70200.00000 0 -22926393.798 10127758.711 4959506.948 10 0 59994 71100.00000 0 -22197828.845 9792843.211 8008440.640 10 0 59994 72000.00000 0 -21196251.853 9196782.044 10902550.225 10 0 59994 72900.00000 0 -19972588.135 8315996.721 13585868.528 10 0 59994 73800.00000 0 -18583431.493 7138250.981 16006473.738 10 0 59994 74700.00000 0 -17088657.781 5663430.429 18117482.715 10 0 59994 75600.00000 0 -15548920.545 3903821.213 19877950.773 10 0 59994 76500.00000 0 -14023132.052 1883874.276 21253661.429 10 0 59994 77400.00000 0 -12566033.640 -360537.327 22217791.387 10 0 59994 78300.00000 0 -11225955.831 -2783339.872 22751438.065 10 0 59994 79200.00000 0 -10042861.103 -5329911.363 22843999.176 10 0 59994 80100.00000 0 -9046750.917 -7939099.134 22493396.212 10 0 59994 81000.00000 0 -8256503.904 -10545521.563 21706136.306 10 0 59994 81900.00000 0 -7679194.570 -13082060.597 20497209.623 10 0 59994 82800.00000 0 -7309922.213 -15482443.085 18889822.379 10 0 59994 83700.00000 0 -7132158.539 -17683804.505 16914968.657 10 0 59994 84600.00000 0 -7118600.680 -19629128.480 14610847.331 10 0 59994 85500.00000 0 -7232494.879 -21269459.749 12022133.724 10 0 59995 0.00000 0 -7429375.687 -22565796.949 9199119.114 10 0 59995 900.00000 0 -7659147.536 -23490585.110 6196732.485 10 0 59995 1800.00000 0 -7868419.847 -24028742.013 3073467.331 10 0 59995 2700.00000 0 -8002995.985 -24178176.139 -109770.089 10 0 59995 3600.00000 0 -8010408.538 -23949771.505 -3290863.689 10 0 59995 4500.00000 0 -7842391.246 -23366840.242 -6407717.989 10 0 59995 5400.00000 0 -7457180.217 -22464065.981 -9399489.803 10 0 59995 6300.00000 0 -6821544.322 -21285983.414 -12207795.013 10 0 59995 7200.00000 0 -5912456.391 -19885059.528 -14777864.782 10 0 59995 8100.00000 0 -4718332.538 -18319459.258 -17059626.926 10 0 59995 9000.00000 0 -3239785.811 -16650591.670 -19008690.032 10 0 59995 9900.00000 0 -1489861.557 -14940541.953 -20587210.384 10 0 59995 10800.00000 0 506255.667 -13249498.792 -21764624.678 10 0 59995 11700.00000 0 2712051.091 -11633286.260 -22518234.745 10 0 59995 12600.00000 0 5080970.096 -10141104.117 -22833633.848 10 0 59995 13500.00000 0 7558135.225 -8813570.828 -22704967.680 10 0 59995 14400.00000 0 10082417.350 -7681149.997 -22135026.603 10 0 59995 15300.00000 0 12588774.069 -6763024.229 -21135169.082 10 0 59995 16200.00000 0 15010757.660 -6066461.074 -19725079.497 10 0 59995 17100.00000 0 17283088.480 -5586694.857 -17932366.559 10 0 59995 18000.00000 0 19344187.338 -5307326.491 -15792011.423 10 0 59995 18900.00000 0 21138562.724 -5201221.821 -13345677.146 10 0 59995 19800.00000 0 22618955.076 -5231868.476 -10640893.530 10 0 59995 20700.00000 0 23748150.691 -5355132.422 -7730133.433 10 0 59995 21600.00000 0 24500391.737 -5521339.159 -4669798.415 10 0 59995 22500.00000 0 24862325.605 -5677591.410 -1519132.998 10 0 59995 23400.00000 0 24833455.819 -5770225.700 1660912.015 10 0 59995 24300.00000 0 24426077.221 -5747304.782 4808845.994 10 0 59995 25200.00000 0 23664699.204 -5561041.642 7863813.207 10 0 59995 26100.00000 0 22584981.631 -5170053.783 10766754.214 10 0 59995 27000.00000 0 21232227.886 -4541353.582 13461532.739 10 0 59995 27900.00000 0 19659497.462 -3651991.340 15896007.556 10 0 59995 28800.00000 0 17925415.897 -2490281.863 18023029.843 10 0 59995 29700.00000 0 16091772.139 -1056562.346 19801347.891 10 0 59995 30600.00000 0 14221002.057 636551.627 21196402.529 10 0 59995 31500.00000 0 12373661.534 2564424.700 22180998.478 10 0 59995 32400.00000 0 10605993.116 4691166.790 22735838.801 10 0 59995 33300.00000 0 8967686.616 6970875.591 22849911.891 10 0 59995 34200.00000 0 7499926.404 9349307.847 22520722.687 10 0 59995 35100.00000 0 6233806.728 11765912.781 21754362.505 10 0 59995 36000.00000 0 5189181.498 14156145.708 20565414.453 10 0 59995 36900.00000 0 4373997.405 16453967.543 18976694.440 10 0 59995 37800.00000 0 3784139.264 18594427.465 17018830.721 10 0 59995 38700.00000 0 3403795.196 20516221.603 14729688.190 10 0 59995 39600.00000 0 3206327.321 22164120.655 12153646.837 10 0 59995 40500.00000 0 3155612.047 23491163.999 9340747.086 10 0 59995 41400.00000 0 3207793.662 24460526.930 6345717.799 10 0 59995 42300.00000 0 3313376.834 25046980.896 3226905.794 10 0 59995 43200.00000 0 3419568.466 25237883.602 45128.226 10 0 59995 44100.00000 0 3472768.133 25033655.759 -3137528.653 10 0 59995 45000.00000 0 3421099.381 24447723.292 -6258939.236 10 0 59995 45900.00000 0 3216872.076 23505926.953 -9258170.811 10 0 59995 46800.00000 0 2818868.811 22245424.440 -12076692.170 10 0 59995 47700.00000 0 2194355.973 20713132.146 -14659532.882 10 0 59995 48600.00000 0 1320732.125 18963773.621 -16956368.848 10 0 59995 49500.00000 0 186742.305 17057618.609 -18922511.660 10 0 59995 50400.00000 0 -1206794.152 15058009.625 -20519781.647 10 0 59995 51300.00000 0 -2846773.466 13028781.633 -21717247.466 10 0 59995 52200.00000 0 -4708123.749 11031684.312 -22491818.283 10 0 59995 53100.00000 0 -6754634.076 9123915.589 -22828677.923 10 0 59995 54000.00000 0 -8940260.792 7355869.543 -22721553.980 10 0 59995 54900.00000 0 -11210855.575 5769191.941 -22172818.233 10 0 59995 55800.00000 0 -13506242.308 4395223.031 -21193418.185 10 0 59995 56700.00000 0 -15762555.587 3253890.335 -19802642.753 10 0 59995 57600.00000 0 -17914743.248 2353094.932 -18027728.217 10 0 59995 58500.00000 0 -19899128.919 1688613.892 -15903313.340 10 0 59995 59400.00000 0 -21655928.591 1244519.945 -13470755.259 10 0 59995 60300.00000 0 -23131617.533 994097.990 -10777319.999 10 0 59995 61200.00000 0 -24281050.404 901217.702 -7875263.652 10 0 59995 62100.00000 0 -25069247.854 922102.775 -4820821.970 10 0 59995 63000.00000 0 -25472776.895 1007421.308 -1673127.614 10 0 59995 63900.00000 0 -25480669.058 1104608.864 1506924.552 10 0 59995 64800.00000 0 -25094839.463 1160326.438 4657842.979 10 0 59995 65700.00000 0 -24329990.338 1122950.303 7718714.258 10 0 59995 66600.00000 0 -23213003.563 944989.572 10630365.624 10 0 59995 67500.00000 0 -21781847.653 585330.448 13336493.961 10 0 59995 68400.00000 0 -20084044.286 11213.305 15784740.758 10 0 59995 69300.00000 0 -18174757.344 -800140.317 17927693.459 10 0 59995 70200.00000 0 -16114582.765 -1860319.435 19723795.004 10 0 59995 71100.00000 0 -13967129.629 -3168985.723 21138144.870 10 0 59995 72000.00000 0 -11796491.488 -4713638.473 22143176.728 10 0 59995 72900.00000 0 -9664711.535 -6469894.496 22719199.801 10 0 59995 73800.00000 0 -7629345.671 -8402273.948 22854793.238 10 0 59995 74700.00000 0 -5741223.886 -10465462.280 22547045.096 10 0 59995 75600.00000 0 -4042502.569 -12605998.703 21801630.155 10 0 59995 76500.00000 0 -2565088.835 -14764323.619 20632723.427 10 0 59995 77400.00000 0 -1329502.976 -16877101.985 19062749.159 10 0 59995 78300.00000 0 -344227.299 -18879727.446 17121968.184 10 0 59995 79200.00000 0 394430.477 -20708903.619 14847909.594 10 0 59995 80100.00000 0 901952.575 -22305194.711 12284656.052 10 0 59995 81000.00000 0 1204720.695 -23615438.037 9481995.246 10 0 59995 81900.00000 0 1338656.831 -24594915.954 6494453.181 10 0 59995 82800.00000 0 1347452.891 -25209194.195 3380227.962 10 0 59995 83700.00000 0 1280464.679 -25435547.321 200045.341 10 0 59995 84600.00000 0 1190360.784 -25263909.342 -2984040.559 10 0 59995 85500.00000 0 1130627.919 -24697307.836 -6109876.281 10 0 59996 0.00000 0 1153040.807 -23751762.292 -9116441.590 10 0 59996 900.00000 0 1305206.514 -22455649.968 -11945060.970 10 0 59996 1800.00000 0 1628289.807 -20848567.586 -14540564.302 10 0 59996 2700.00000 0 2155018.261 -18979736.060 -16852377.666 10 0 59996 3600.00000 0 2908053.435 -16906017.892 -18835517.581 10 0 59996 4500.00000 0 3898798.263 -14689631.794 -20451470.121 10 0 59996 5400.00000 0 5126691.745 -12395662.124 -21668937.303 10 0 59996 6300.00000 0 6579020.772 -10089468.884 -22464436.676 10 0 59996 7200.00000 0 8231256.606 -7834107.568 -22822743.313 10 0 59996 8100.00000 0 10047901.180 -5687866.913 -22737167.013 10 0 59996 9000.00000 0 11983806.796 -3702026.827 -22209660.922 10 0 59996 9900.00000 0 13985913.063 -1918928.732 -21250761.205 10 0 59996 10800.00000 0 15995327.658 -370436.782 -19879360.637 10 0 59996 11700.00000 0 17949663.534 923148.468 -18122322.074 10 0 59996 12600.00000 0 19785534.902 1953681.561 -16013940.596 10 0 59996 13500.00000 0 21441108.154 2725247.271 -13595265.790 10 0 59996 14400.00000 0 22858602.067 3253719.252 -10913297.938 10 0 59996 15300.00000 0 23986634.040 3565823.479 -8020074.046 10 0 59996 16200.00000 0 24782315.825 3697747.972 -4971661.426 10 0 59996 17100.00000 0 25213012.752 3693358.888 -1827077.980 10 0 59996 18000.00000 0 25257694.471 3602098.927 1352840.448 10 0 59996 18900.00000 0 24907822.081 3476656.846 4506604.548 10 0 59996 19800.00000 0 24167735.586 3370506.017 7573246.358 10 0 59996 20700.00000 0 23054526.048 3335415.077 10493482.797 10 0 59996 21600.00000 0 21597397.809 3419034.730 13210846.705 10 0 59996 22500.00000 0 19836546.891 3662661.487 15672764.822 10 0 59996 23400.00000 0 17821601.343 4099271.882 17831563.085 10 0 59996 24300.00000 0 15609687.038 4751909.629 19645380.976 10 0 59996 25200.00000 0 13263197.698 5632493.890 21078978.158 10 0 59996 26100.00000 0 10847359.939 6741099.652 22104418.411 10 0 59996 27000.00000 0 8427692.699 8065742.110 22701617.868 10 0 59996 27900.00000 0 6067464.807 9582676.340 22858746.744 10 0 59996 28800.00000 0 3825255.014 11257202.428 22572476.053 10 0 59996 29700.00000 0 1752714.898 13044945.337 21848063.384 10 0 59996 30600.00000 0 -107372.768 14893558.918 20699274.488 10 0 59996 31500.00000 0 -1722659.248 16744785.450 19148140.323 10 0 59996 32400.00000 0 -3072352.967 18536786.684 17224552.222 10 0 59996 33300.00000 0 -4147852.840 20206650.223 14965701.031 10 0 59996 34200.00000 0 -4952864.365 21692966.795 12415369.345 10 0 59996 35100.00000 0 -5502992.838 22938370.030 9623089.171 10 0 59996 36000.00000 0 -5824830.230 23891931.024 6643180.567 10 0 59996 36900.00000 0 -5954574.130 24511305.310 3533689.765 10 0 59996 37800.00000 0 -5936237.540 24764539.788 355247.953 10 0 59996 38700.00000 0 -5819526.320 24631461.294 -2830125.982 10 0 59996 39600.00000 0 -5657475.850 24104586.258 -5960253.700 10 0 59996 40500.00000 0 -5503949.196 23189511.440 -8974030.735 10 0 59996 41400.00000 0 -5411105.323 21904768.288 -11812638.675 10 0 59996 42300.00000 0 -5426947.201 20281146.665 -14420710.434 10 0 59996 43200.00000 0 -5593056.088 18360516.799 -16747424.081 10 0 59996 44100.00000 0 -5942609.948 16194199.880 -18747502.509 10 0 59996 45000.00000 0 -6498771.324 13840957.105 -20382098.600 10 0 59996 45900.00000 0 -7273513.626 11364682.962 -21619548.449 10 0 59996 46800.00000 0 -8266935.624 8831900.750 -22435978.344 10 0 59996 47700.00000 0 -9467092.674 6309166.116 -22815754.604 10 0 59996 48600.00000 0 -10850351.023 3860487.545 -22751768.864 10 0 59996 49500.00000 0 -12382249.257 1544871.190 -22245554.882 10 0 59996 50400.00000 0 -14018829.617 -585908.523 -21307236.321 10 0 59996 51300.00000 0 -15708382.330 -2489221.347 -19955308.252 10 0 59996 52200.00000 0 -17393529.137 -4133099.354 -18216258.169 10 0 59996 53100.00000 0 -19013558.336 -5497300.304 -16124035.217 10 0 59996 54000.00000 0 -20506913.663 -6573874.988 -13719378.931 10 0 59996 54900.00000 0 -21813733.318 -7367218.040 -11049021.176 10 0 59996 55800.00000 0 -22878333.728 -7893603.048 -8164777.130 10 0 59996 56700.00000 0 -23651535.276 -8180224.077 -5122542.893 10 0 59996 57600.00000 0 -24092734.004 -8263785.863 -1981218.871 10 0 59996 58500.00000 0 -24171633.937 -8188703.302 1198420.798 10 0 59996 59400.00000 0 -23869568.800 -8004986.711 4354891.656 10 0 59996 60300.00000 0 -23180358.782 -7765901.942 7427173.713 10 0 59996 61200.00000 0 -22110667.093 -7525503.471 10355875.992 10 0 59996 62100.00000 0 -20679841.475 -7336143.583 13084369.556 10 0 59996 63000.00000 0 -18919246.809 -7246061.587 15559868.457 10 0 59996 63900.00000 0 -16871115.614 -7297153.684 17734438.913 10 0 59996 64800.00000 0 -14586962.859 -7523016.660 19565918.403 10 0 59996 65700.00000 0 -12125629.115 -7947347.511 21018727.829 10 0 59996 66600.00000 0 -9551031.347 -8582766.605 22064561.702 10 0 59996 67500.00000 0 -6929712.539 -9430114.848 22682943.235 10 0 59996 68400.00000 0 -4328289.863 -10478256.034 22861633.444 10 0 59996 69300.00000 0 -1810905.512 -11704394.878 22596885.626 10 0 59996 70200.00000 0 563215.306 -13074900.055 21893539.148 10 0 59996 71100.00000 0 2741998.637 -14546600.529 20764949.164 10 0 59996 72000.00000 0 4682455.663 -16068503.536 19232751.730 10 0 59996 72900.00000 0 6352235.471 -17583864.518 17326466.837 10 0 59996 73800.00000 0 7730731.328 -19032523.926 15082945.038 10 0 59996 74700.00000 0 8809693.352 -20353413.740 12545666.619 10 0 59996 75600.00000 0 9593321.019 -21487128.490 9763905.494 10 0 59996 76500.00000 0 10097830.911 -22378451.897 6791773.227 10 0 59996 77400.00000 0 10350517.535 -22978731.271 3687161.541 10 0 59996 78300.00000 0 10388346.959 -23247997.567 510604.386 10 0 59996 79200.00000 0 10256143.451 -23156739.398 -2675917.230 10 0 59996 80100.00000 0 10004447.188 -22687253.814 -5810202.666 10 0 59996 81000.00000 0 9687135.654 -21834514.781 -8831065.413 10 0 59996 81900.00000 0 9358911.804 -20606521.161 -11679547.009 10 0 59996 82800.00000 0 9072767.880 -19024108.540 -14300085.256 10 0 59996 83700.00000 0 8877534.775 -17120232.611 -16641612.112 10 0 59996 84600.00000 0 8815622.786 -14938754.599 -18658558.484 10 0 59996 85500.00000 0 8921051.014 -12532780.686 -20311745.406 99